Regional Weather Roundup
Issued by NWS

Home | Current Version | Previous Version | Graphics & Text | Print | Product List | Glossary On
Versions: 1 2 3 4 5 6 7 8 9 10 11 12 13 14 15 16 17 18 19 20 21 22 23 24 25 26 27 28 29 30 31 32 33 34 35 36 37 38 39 40 41 42 43 44 45 46 47 48 49 50
103
ASUS45 KCYS 021210
RWRWY

WYOMING REGIONAL WEATHER ROUNDUP
NATIONAL WEATHER SERVICE CHEYENNE WY
600 AM MDT MON MAY 02 2016

NOTE:  "FAIR" INDICATES FEW OR NO CLOUDS BELOW 12,000 FEET
WITH NO SIGNIFICANT WEATHER AND/OR OBSTRUCTIONS TO VISIBILITY.

WYZ001-021300-
YELLOWSTONE NATIONAL PARK

CITY           SKY/WX    TMP DP  RH WIND       PRES   REMARKS
LK YELLOWSTONE   N/A     20  16  84 CALM      30.30S
6HR MIN TEMP:  20; 6HR MAX TEMP:  26;

W YELLOWSTONE  NOT AVBL

$$
WYZ002>013-054>058-071-098>099-021300-
NORTHERN WYOMING

CITY           SKY/WX    TMP DP  RH WIND       PRES   REMARKS
JACKSON        FAIR      27  23  86 CALM      30.28R
CODY           FAIR      39  27  60 SW13      30.21R WCI  32
GREYBULL       FAIR      34  28  79 CALM      30.22S
6HR MIN TEMP:  34; 6HR MAX TEMP:  46;

WORLAND        FAIR      36  30  79 SE10      30.22S WCI  28
6HR MIN TEMP:  34; 6HR MAX TEMP:  41;

SHERIDAN       FAIR      33  27  78 CALM      30.18S
6HR MIN TEMP:  31; 6HR MAX TEMP:  37;

BUFFALO          N/A    N/A N/A N/A MISG      30.20S
GILLETTE       FAIR      36  30  79 SW8       30.18S WCI  30
6HR MIN TEMP:  31; 6HR MAX TEMP:  38;

HULETT         FAIR      36  30  80 SW5       30.20S WCI  32
NEWCASTLE      FAIR      32  27  80 N6        30.20S WCI  26

$$
WYZ014>020-022>026-101>103-021300-
CENTRAL WYOMING

CITY           SKY/WX    TMP DP  RH WIND       PRES   REMARKS
BIG PINEY      FAIR      16  12  84 N3        30.29R
6HR MIN TEMP:  16; 6HR MAX TEMP:  26;

PINEDALE       FAIR      19  18  93 CALM      30.29S
DUBOIS         NOT AVBL
LANDER         FAIR      32  18  56 SW7       30.25S WCI  26
6HR MIN TEMP:  30; 6HR MAX TEMP:  38;

RIVERTON       FAIR      33  25  72 W9        30.26S WCI  25
6HR MIN TEMP:  32; 6HR MAX TEMP:  40;

CASPER         FAIR      29  23  78 SW9       30.24S WCI  20
6HR MIN TEMP:  29; 6HR MAX TEMP:  33;

DOUGLAS        FAIR      28  26  92 N8        30.24S WCI  20
6HR MIN TEMP:  26; 6HR MAX TEMP:  34;


$$
WYZ021-027>030-104>119-021300-
SOUTHERN WYOMING

CITY           SKY/WX    TMP DP  RH WIND       PRES   REMARKS
EVANSTON       FAIR      29  21  72 E9        30.25S WCI  20
6HR MIN TEMP:  29; 6HR MAX TEMP:  34;

KEMMERER       FAIR      27  21  80 N5        30.28R WCI  21
FORT BRIDGER   SUNNY     28  27  93 E8        30.30R WCI  20
ROCK SPRINGS   FAIR      28  20  71 CALM      30.27R
6HR MIN TEMP:  25; 6HR MAX TEMP:  33;

DIXON          FAIR      23  20  86 CALM      30.27R
RAWLINS        FAIR      23  18  81 NE8       30.26R WCI  14
6HR MIN TEMP:  22; 6HR MAX TEMP:  30;

SARATOGA       FAIR      19  16  86 NE3       30.25S
LARAMIE        FAIR      14  11  87 S6        30.24S WCI   5
6HR MIN TEMP:  14; 6HR MAX TEMP:  23;

CHEYENNE       FAIR      26  19  74 W10       30.22F WCI  16
6HR MIN TEMP:  25; 6HR MAX TEMP:  28;

TORRINGTON     FAIR      29  27  92 W5        30.22F WCI  24
6HR MIN TEMP:  29; 6HR MAX TEMP:  34;

PINE BLUFFS    FAIR      25  23  93 W5        30.24S WCI  19

$$




USA.gov is the U.S. government's official web portal to all federal, state and local government web resources and services.